Location: Burzi?i
(45.0869°N, 16.0577°E)
Time: 11:34:47
(UTC+00:00)

Meteor 2-3 Rocket - Pass Details

Date: 29 October 2020
Orbit: 843 x 885 km, 81.2° (Epoch: 27 November)

Event Time Altitude Azimuth Distance (km) Brightness Sun altitude
Rises 18:12:42 0° 351° (N) 3,460 7.1 -26.1°
Reaches altitude 10° 18:15:09 10° 354° (N) 2,524 6.3 -26.5°
Enters shadow 18:19:35 51° 20° (NNE) 1,089 4.1 -27.3°
